Year,Month,Day,Hour,Minute,Value (Times are PST for temperature in C)
2014,01,31,00,00,3.80
2014,01,31,00,01,3.80
2014,01,31,00,02,3.80
2014,01,31,00,03,3.80
2014,01,31,00,04,3.80
2014,01,31,00,05,3.80
2014,01,31,00,06,3.80
2014,01,31,00,07,3.80
2014,01,31,00,08,3.80
2014,01,31,00,09,3.90
2014,01,31,00,10,3.90
2014,01,31,00,11,3.90
2014,01,31,00,12,3.90
2014,01,31,00,13,3.90
2014,01,31,00,14,3.90
2014,01,31,00,15,3.90
2014,01,31,00,16,3.90
2014,01,31,00,17,3.90
2014,01,31,00,18,3.90
2014,01,31,00,19,3.90
2014,01,31,00,20,3.90
2014,01,31,00,21,3.90
2014,01,31,00,22,3.90
2014,01,31,00,23,3.90
2014,01,31,00,24,3.90
2014,01,31,00,25,3.90
2014,01,31,00,26,3.90
2014,01,31,00,27,3.90
2014,01,31,00,28,3.90
2014,01,31,00,29,3.90
2014,01,31,00,30,3.90
2014,01,31,00,31,3.80
2014,01,31,00,32,3.80
2014,01,31,00,33,3.80
2014,01,31,00,34,3.80
2014,01,31,00,35,3.80
2014,01,31,00,36,3.80
2014,01,31,00,37,3.80
2014,01,31,00,38,3.80
2014,01,31,00,39,3.80
2014,01,31,00,40,3.80
2014,01,31,00,41,3.80
2014,01,31,00,42,3.80
2014,01,31,00,43,3.80
2014,01,31,00,44,3.80
2014,01,31,00,45,3.80
2014,01,31,00,46,3.80
2014,01,31,00,47,3.80
2014,01,31,00,48,3.80
2014,01,31,00,49,3.80
2014,01,31,00,50,3.80
2014,01,31,00,51,3.80
2014,01,31,00,52,3.80
2014,01,31,00,53,3.80
2014,01,31,00,54,3.80
2014,01,31,00,55,3.80
2014,01,31,00,56,3.80
2014,01,31,00,57,3.80
2014,01,31,00,58,3.80
2014,01,31,00,59,3.80
2014,01,31,01,00,3.80
2014,01,31,01,01,3.80
2014,01,31,01,02,3.80
2014,01,31,01,03,3.80
2014,01,31,01,04,3.80
2014,01,31,01,05,3.80
2014,01,31,01,06,3.80
2014,01,31,01,07,3.90
2014,01,31,01,08,3.90
2014,01,31,01,09,3.90
2014,01,31,01,10,3.90
2014,01,31,01,11,3.90
2014,01,31,01,12,3.90
2014,01,31,01,13,3.90
2014,01,31,01,14,3.90
2014,01,31,01,15,3.90
2014,01,31,01,16,3.90
2014,01,31,01,17,3.90
2014,01,31,01,18,3.90
2014,01,31,01,19,3.90
2014,01,31,01,20,3.90
2014,01,31,01,21,3.90
2014,01,31,01,22,3.90
2014,01,31,01,23,3.90
2014,01,31,01,24,3.80
2014,01,31,01,25,3.80
2014,01,31,01,26,3.80
2014,01,31,01,27,3.80
2014,01,31,01,28,3.80
2014,01,31,01,29,3.80
2014,01,31,01,30,3.80
2014,01,31,01,31,3.80
2014,01,31,01,32,3.80
2014,01,31,01,33,3.80
2014,01,31,01,34,3.80
2014,01,31,01,35,3.80
2014,01,31,01,36,3.80
2014,01,31,01,37,3.80
2014,01,31,01,38,3.80
2014,01,31,01,39,3.80
2014,01,31,01,40,3.80
2014,01,31,01,41,3.80
2014,01,31,01,42,3.80
2014,01,31,01,43,3.80
2014,01,31,01,44,3.80
2014,01,31,01,45,3.80
2014,01,31,01,46,3.80
2014,01,31,01,47,3.80
2014,01,31,01,48,3.80
2014,01,31,01,49,3.70
2014,01,31,01,50,3.70
2014,01,31,01,51,3.70
2014,01,31,01,52,3.70
2014,01,31,01,53,3.70
2014,01,31,01,54,3.80
2014,01,31,01,55,3.80
2014,01,31,01,56,3.80
2014,01,31,01,57,3.80
2014,01,31,01,58,3.80
2014,01,31,01,59,3.80
2014,01,31,02,00,3.80
2014,01,31,02,01,3.80
2014,01,31,02,02,3.80
2014,01,31,02,03,3.80
2014,01,31,02,04,3.80
2014,01,31,02,05,3.80
2014,01,31,02,06,3.80
2014,01,31,02,07,3.80
2014,01,31,02,08,3.80
2014,01,31,02,09,3.80
2014,01,31,02,10,3.80
2014,01,31,02,11,3.80
2014,01,31,02,12,3.80
2014,01,31,02,13,3.80
2014,01,31,02,14,3.80
2014,01,31,02,15,3.80
2014,01,31,02,16,3.80
2014,01,31,02,17,3.80
2014,01,31,02,18,3.80
2014,01,31,02,19,3.80
2014,01,31,02,20,3.80
2014,01,31,02,21,3.80
2014,01,31,02,22,3.80
2014,01,31,02,23,3.80
2014,01,31,02,24,3.80
2014,01,31,02,25,3.80
2014,01,31,02,26,3.80
2014,01,31,02,27,3.80
2014,01,31,02,28,3.80
2014,01,31,02,29,3.80
2014,01,31,02,30,3.80
2014,01,31,02,31,3.80
2014,01,31,02,32,3.80
2014,01,31,02,33,3.80
2014,01,31,02,34,3.80
2014,01,31,02,35,3.80
2014,01,31,02,36,3.80
2014,01,31,02,37,3.80
2014,01,31,02,38,3.80
2014,01,31,02,39,3.80
2014,01,31,02,40,3.80
2014,01,31,02,41,3.90
2014,01,31,02,42,3.90
2014,01,31,02,43,3.90
2014,01,31,02,44,3.90
2014,01,31,02,45,3.90
2014,01,31,02,46,3.90
2014,01,31,02,47,3.90
2014,01,31,02,48,3.90
2014,01,31,02,49,3.90
2014,01,31,02,50,3.90
2014,01,31,02,51,3.90
2014,01,31,02,52,3.90
2014,01,31,02,53,3.90
2014,01,31,02,54,3.90
2014,01,31,02,55,4.00
2014,01,31,02,56,4.00
2014,01,31,02,57,4.00
2014,01,31,02,58,4.00
2014,01,31,02,59,4.00
2014,01,31,03,00,4.00
2014,01,31,03,01,4.00
2014,01,31,03,02,4.00
2014,01,31,03,03,4.00
2014,01,31,03,04,3.90
2014,01,31,03,05,3.90
2014,01,31,03,06,3.90
2014,01,31,03,07,3.90
2014,01,31,03,08,3.90
2014,01,31,03,09,3.90
2014,01,31,03,10,3.90
2014,01,31,03,11,3.80
2014,01,31,03,12,3.80
2014,01,31,03,13,3.80
2014,01,31,03,14,3.80
2014,01,31,03,15,3.80
2014,01,31,03,16,3.80
2014,01,31,03,17,3.80
2014,01,31,03,18,3.80
2014,01,31,03,19,3.80
2014,01,31,03,20,3.80
2014,01,31,03,21,3.80
2014,01,31,03,22,3.80
2014,01,31,03,23,3.80
2014,01,31,03,24,3.80
2014,01,31,03,25,3.80
2014,01,31,03,26,3.80
2014,01,31,03,27,3.80
2014,01,31,03,28,3.80
2014,01,31,03,29,3.80
2014,01,31,03,30,3.80
2014,01,31,03,31,3.80
2014,01,31,03,32,3.80
2014,01,31,03,33,3.80
2014,01,31,03,34,3.80
2014,01,31,03,35,3.80
2014,01,31,03,36,3.80
2014,01,31,03,37,3.80
2014,01,31,03,38,3.80
2014,01,31,03,39,3.80
2014,01,31,03,40,3.80
2014,01,31,03,41,3.80
2014,01,31,03,42,3.80
2014,01,31,03,43,3.80
2014,01,31,03,44,3.80
2014,01,31,03,45,3.80
2014,01,31,03,46,3.80
2014,01,31,03,47,3.90
2014,01,31,03,48,3.90
2014,01,31,03,49,3.90
2014,01,31,03,50,3.90
2014,01,31,03,51,3.90
2014,01,31,03,52,3.90
2014,01,31,03,53,3.80
2014,01,31,03,54,3.80
2014,01,31,03,55,3.80
2014,01,31,03,56,3.80
2014,01,31,03,57,3.80
2014,01,31,03,58,3.80
2014,01,31,03,59,3.80
2014,01,31,04,00,3.80
2014,01,31,04,01,3.80
2014,01,31,04,02,3.80
2014,01,31,04,03,3.80
2014,01,31,04,04,3.80
2014,01,31,04,05,3.80
2014,01,31,04,06,3.80
2014,01,31,04,07,3.80
2014,01,31,04,08,3.80
2014,01,31,04,09,3.80
2014,01,31,04,10,3.80
2014,01,31,04,11,3.80
2014,01,31,04,12,3.80
2014,01,31,04,13,3.80
2014,01,31,04,14,3.80
2014,01,31,04,15,3.80
2014,01,31,04,16,3.80
2014,01,31,04,17,3.80
2014,01,31,04,18,3.80
2014,01,31,04,19,3.80
2014,01,31,04,20,3.80
2014,01,31,04,21,3.80
2014,01,31,04,22,3.80
2014,01,31,04,23,3.80
2014,01,31,04,24,3.80
2014,01,31,04,25,3.80
2014,01,31,04,26,3.80
2014,01,31,04,27,3.80
2014,01,31,04,28,3.80
2014,01,31,04,29,3.80
2014,01,31,04,30,3.80
2014,01,31,04,31,3.80
2014,01,31,04,32,3.80
2014,01,31,04,33,3.80
2014,01,31,04,34,3.80
2014,01,31,04,35,3.80
2014,01,31,04,36,3.80
2014,01,31,04,37,3.80
2014,01,31,04,38,3.80
2014,01,31,04,39,3.80
2014,01,31,04,40,3.80
2014,01,31,04,41,3.80
2014,01,31,04,42,3.80
2014,01,31,04,43,3.80
2014,01,31,04,44,3.80
2014,01,31,04,45,3.80
2014,01,31,04,46,3.80
2014,01,31,04,47,3.80
2014,01,31,04,48,3.80
2014,01,31,04,49,3.80
2014,01,31,04,50,3.80
2014,01,31,04,51,3.80
2014,01,31,04,52,3.80
2014,01,31,04,53,3.80
2014,01,31,04,54,3.80
2014,01,31,04,55,3.80
2014,01,31,04,56,3.80
2014,01,31,04,57,3.80
2014,01,31,04,58,3.80
2014,01,31,04,59,3.80
2014,01,31,05,00,3.80
2014,01,31,05,01,3.80
2014,01,31,05,02,3.80
2014,01,31,05,03,3.80
2014,01,31,05,04,3.80
2014,01,31,05,05,3.80
2014,01,31,05,06,3.80
2014,01,31,05,07,3.80
2014,01,31,05,08,3.80
2014,01,31,05,09,3.80
2014,01,31,05,10,3.80
2014,01,31,05,11,3.80
2014,01,31,05,12,3.80
2014,01,31,05,13,3.80
2014,01,31,05,14,3.80
2014,01,31,05,15,3.80
2014,01,31,05,16,3.80
2014,01,31,05,17,3.80
2014,01,31,05,18,3.80
2014,01,31,05,19,3.70
2014,01,31,05,20,3.70
2014,01,31,05,21,3.70
2014,01,31,05,22,3.70
2014,01,31,05,23,3.70
2014,01,31,05,24,3.70
2014,01,31,05,25,3.70
2014,01,31,05,26,3.70
2014,01,31,05,27,3.80
2014,01,31,05,28,3.80
2014,01,31,05,29,3.80
2014,01,31,05,30,3.80
2014,01,31,05,31,3.80
2014,01,31,05,32,3.80
2014,01,31,05,33,3.80
2014,01,31,05,34,3.80
2014,01,31,05,35,3.70
2014,01,31,05,36,3.70
2014,01,31,05,37,3.70
2014,01,31,05,38,3.70
2014,01,31,05,39,3.70
2014,01,31,05,40,3.70
2014,01,31,05,41,3.70
2014,01,31,05,42,3.70
2014,01,31,05,43,3.70
2014,01,31,05,44,3.70
2014,01,31,05,45,3.70
2014,01,31,05,46,3.70
2014,01,31,05,47,3.70
2014,01,31,05,48,3.70
2014,01,31,05,49,3.70
2014,01,31,05,50,3.70
2014,01,31,05,51,3.70
2014,01,31,05,52,3.70
2014,01,31,05,53,3.70
2014,01,31,05,54,3.60
2014,01,31,05,55,3.60
2014,01,31,05,56,3.60
2014,01,31,05,57,3.60
2014,01,31,05,58,3.60
2014,01,31,05,59,3.60
2014,01,31,06,00,3.50
2014,01,31,06,01,3.50
2014,01,31,06,02,3.50
2014,01,31,06,03,3.50
2014,01,31,06,04,3.50
2014,01,31,06,05,3.50
2014,01,31,06,06,3.50
2014,01,31,06,07,3.40
2014,01,31,06,08,3.40
2014,01,31,06,09,3.40
2014,01,31,06,10,3.40
2014,01,31,06,11,3.40
2014,01,31,06,12,3.40
2014,01,31,06,13,3.40
2014,01,31,06,14,3.40
2014,01,31,06,15,3.30
2014,01,31,06,16,3.30
2014,01,31,06,17,3.30
2014,01,31,06,18,3.30
2014,01,31,06,19,3.30
2014,01,31,06,20,3.30
2014,01,31,06,21,3.30
2014,01,31,06,22,3.30
2014,01,31,06,23,3.30
2014,01,31,06,24,3.30
2014,01,31,06,25,3.30
2014,01,31,06,26,3.30
2014,01,31,06,27,3.30
2014,01,31,06,28,3.30
2014,01,31,06,29,3.30
2014,01,31,06,30,3.30
2014,01,31,06,31,3.30
2014,01,31,06,32,3.30
2014,01,31,06,33,3.30
2014,01,31,06,34,3.30
2014,01,31,06,35,3.30
2014,01,31,06,36,3.30
2014,01,31,06,37,3.30
2014,01,31,06,38,3.30
2014,01,31,06,39,3.30
2014,01,31,06,40,3.30
2014,01,31,06,41,3.30
2014,01,31,06,42,3.30
2014,01,31,06,43,3.30
2014,01,31,06,44,3.30
2014,01,31,06,45,3.30
2014,01,31,06,46,3.30
2014,01,31,06,47,3.30
2014,01,31,06,48,3.30
2014,01,31,06,49,3.20
2014,01,31,06,50,3.20
2014,01,31,06,51,3.20
2014,01,31,06,52,3.20
2014,01,31,06,53,3.20
2014,01,31,06,54,3.20
2014,01,31,06,55,3.20
2014,01,31,06,56,3.10
2014,01,31,06,57,3.10
2014,01,31,06,58,3.10
2014,01,31,06,59,3.10
2014,01,31,07,00,3.10
2014,01,31,07,01,3.10
2014,01,31,07,02,3.10
2014,01,31,07,03,3.10
2014,01,31,07,04,3.10
2014,01,31,07,05,3.20
2014,01,31,07,06,3.20
2014,01,31,07,07,3.20
2014,01,31,07,08,3.20
2014,01,31,07,09,3.20
2014,01,31,07,10,3.20
2014,01,31,07,11,3.20
2014,01,31,07,12,3.20
2014,01,31,07,13,3.20
2014,01,31,07,14,3.20
2014,01,31,07,15,3.20
2014,01,31,07,16,3.20
2014,01,31,07,17,3.20
2014,01,31,07,18,3.20
2014,01,31,07,19,3.20
2014,01,31,07,20,3.20
2014,01,31,07,21,3.20
2014,01,31,07,22,3.20
2014,01,31,07,23,3.20
2014,01,31,07,24,3.20
2014,01,31,07,25,3.20
2014,01,31,07,26,3.20
2014,01,31,07,27,3.20
2014,01,31,07,28,3.20
2014,01,31,07,29,3.20
2014,01,31,07,30,3.20
2014,01,31,07,31,3.20
2014,01,31,07,32,3.20
2014,01,31,07,33,3.20
2014,01,31,07,34,3.20
2014,01,31,07,35,3.20
2014,01,31,07,36,3.20
2014,01,31,07,37,3.20
2014,01,31,07,38,3.20
2014,01,31,07,39,3.20
2014,01,31,07,40,3.20
2014,01,31,07,41,3.20
2014,01,31,07,42,3.20
2014,01,31,07,43,3.20
2014,01,31,07,44,3.20
2014,01,31,07,45,3.20
2014,01,31,07,46,3.10
2014,01,31,07,47,3.10
2014,01,31,07,48,3.10
2014,01,31,07,49,3.10
2014,01,31,07,50,3.10
2014,01,31,07,51,3.10
2014,01,31,07,52,3.10
2014,01,31,07,53,3.10
2014,01,31,07,54,3.10
2014,01,31,07,55,3.10
2014,01,31,07,56,3.10
2014,01,31,07,57,3.10
2014,01,31,07,58,3.10
2014,01,31,07,59,3.10
2014,01,31,08,00,3.10
2014,01,31,08,01,3.10
2014,01,31,08,02,3.10
2014,01,31,08,03,3.10
2014,01,31,08,04,3.10
2014,01,31,08,05,3.10
2014,01,31,08,06,3.10
2014,01,31,08,07,3.10
2014,01,31,08,08,3.10
2014,01,31,08,09,3.10
2014,01,31,08,10,3.10
2014,01,31,08,11,3.10
2014,01,31,08,12,3.10
2014,01,31,08,13,3.10
2014,01,31,08,14,3.10
2014,01,31,08,15,3.10
2014,01,31,08,16,3.10
2014,01,31,08,17,3.10
2014,01,31,08,18,3.10
2014,01,31,08,19,3.10
2014,01,31,08,20,3.10
2014,01,31,08,21,3.10
2014,01,31,08,22,3.20
2014,01,31,08,23,3.20
2014,01,31,08,24,3.20
2014,01,31,08,25,3.20
2014,01,31,08,26,3.20
2014,01,31,08,27,3.20
2014,01,31,08,28,3.20
2014,01,31,08,29,3.20
2014,01,31,08,30,3.20
2014,01,31,08,31,3.20
2014,01,31,08,32,3.20
2014,01,31,08,33,3.20
2014,01,31,08,34,3.20
2014,01,31,08,35,3.20
2014,01,31,08,36,3.20
2014,01,31,08,37,3.20
2014,01,31,08,38,3.20
2014,01,31,08,39,3.30
2014,01,31,08,40,3.30
2014,01,31,08,41,3.30
2014,01,31,08,42,3.30
2014,01,31,08,43,3.30
2014,01,31,08,44,3.30
2014,01,31,08,45,3.30
2014,01,31,08,46,3.30
2014,01,31,08,47,3.30
2014,01,31,08,48,3.30
2014,01,31,08,49,3.30
2014,01,31,08,50,3.40
2014,01,31,08,51,3.40
2014,01,31,08,52,3.50
2014,01,31,08,53,3.50
2014,01,31,08,54,3.50
2014,01,31,08,55,3.50
2014,01,31,08,56,3.60
2014,01,31,08,57,3.60
2014,01,31,08,58,3.60
2014,01,31,08,59,3.70
2014,01,31,09,00,3.70
2014,01,31,09,01,3.80
2014,01,31,09,02,3.80
2014,01,31,09,03,3.80
2014,01,31,09,04,3.80
2014,01,31,09,05,3.80
2014,01,31,09,06,3.90
2014,01,31,09,07,3.90
2014,01,31,09,08,3.90
2014,01,31,09,09,4.00
2014,01,31,09,10,4.00
2014,01,31,09,11,4.00
2014,01,31,09,12,4.00
2014,01,31,09,13,4.00
2014,01,31,09,14,4.00
2014,01,31,09,15,4.00
2014,01,31,09,16,4.00
2014,01,31,09,17,4.00
2014,01,31,09,18,4.00
2014,01,31,09,19,4.10
2014,01,31,09,20,4.10
2014,01,31,09,21,4.00
2014,01,31,09,22,4.00
2014,01,31,09,23,4.00
2014,01,31,09,24,4.00
2014,01,31,09,25,4.00
2014,01,31,09,26,4.00
2014,01,31,09,27,4.00
2014,01,31,09,28,4.00
2014,01,31,09,29,4.00
2014,01,31,09,30,4.00
2014,01,31,09,31,4.00
2014,01,31,09,32,4.00
2014,01,31,09,33,4.00
2014,01,31,09,34,4.10
2014,01,31,09,35,4.10
2014,01,31,09,36,4.10
2014,01,31,09,37,4.10
2014,01,31,09,38,4.10
2014,01,31,09,39,4.10
2014,01,31,09,40,4.10
2014,01,31,09,41,4.00
2014,01,31,09,42,4.00
2014,01,31,09,43,4.00
2014,01,31,09,44,4.00
2014,01,31,09,45,4.00
2014,01,31,09,46,4.00
2014,01,31,09,47,4.00
2014,01,31,09,48,4.10
2014,01,31,09,49,4.10
2014,01,31,09,50,4.20
2014,01,31,09,51,4.30
2014,01,31,09,52,4.40
2014,01,31,09,53,4.40
2014,01,31,09,54,4.50
2014,01,31,09,55,4.50
2014,01,31,09,56,4.60
2014,01,31,09,57,4.60
2014,01,31,09,58,4.70
2014,01,31,09,59,4.80
2014,01,31,10,00,4.80
2014,01,31,10,01,4.90
2014,01,31,10,02,4.90
2014,01,31,10,03,4.90
2014,01,31,10,04,4.90
2014,01,31,10,05,4.80
2014,01,31,10,06,4.80
2014,01,31,10,07,4.70
2014,01,31,10,08,4.70
2014,01,31,10,09,4.60
2014,01,31,10,10,4.70
2014,01,31,10,11,4.70
2014,01,31,10,12,4.80
2014,01,31,10,13,4.90
2014,01,31,10,14,4.90
2014,01,31,10,15,5.00
2014,01,31,10,16,5.10
2014,01,31,10,17,5.10
2014,01,31,10,18,5.30
2014,01,31,10,19,5.30
2014,01,31,10,20,5.30
2014,01,31,10,21,5.30
2014,01,31,10,22,5.30
2014,01,31,10,23,5.30
2014,01,31,10,24,5.40
2014,01,31,10,25,5.40
2014,01,31,10,26,5.40
2014,01,31,10,27,5.40
2014,01,31,10,28,5.30
2014,01,31,10,29,5.20
2014,01,31,10,30,5.10
2014,01,31,10,31,5.10
2014,01,31,10,32,5.10
2014,01,31,10,33,5.10
2014,01,31,10,34,5.10
2014,01,31,10,35,5.10
2014,01,31,10,36,5.10
2014,01,31,10,37,5.30
2014,01,31,10,38,5.40
2014,01,31,10,39,5.50
2014,01,31,10,40,5.60
2014,01,31,10,41,5.70
2014,01,31,10,42,5.80
2014,01,31,10,43,5.80
2014,01,31,10,44,5.80
2014,01,31,10,45,5.70
2014,01,31,10,46,5.70
2014,01,31,10,47,5.60
2014,01,31,10,48,5.60
2014,01,31,10,49,5.70
2014,01,31,10,50,5.70
2014,01,31,10,51,5.80
2014,01,31,10,52,5.90
2014,01,31,10,53,6.00
2014,01,31,10,54,6.00
2014,01,31,10,55,5.90
2014,01,31,10,56,5.80
2014,01,31,10,57,5.80
2014,01,31,10,58,5.80
2014,01,31,10,59,5.90
2014,01,31,11,00,5.90
2014,01,31,11,01,5.90
2014,01,31,11,02,5.90
2014,01,31,11,03,5.80
2014,01,31,11,04,5.80
2014,01,31,11,05,5.90
2014,01,31,11,06,5.90
2014,01,31,11,07,5.90
2014,01,31,11,08,5.90
2014,01,31,11,09,6.00
2014,01,31,11,10,6.10
2014,01,31,11,11,6.10
2014,01,31,11,12,6.20
2014,01,31,11,13,6.20
2014,01,31,11,14,6.20
2014,01,31,11,15,6.20
2014,01,31,11,16,6.20
2014,01,31,11,17,6.20
2014,01,31,11,18,6.20
2014,01,31,11,19,6.10
2014,01,31,11,20,6.00
2014,01,31,11,21,5.90
2014,01,31,11,22,5.90
2014,01,31,11,23,5.90
2014,01,31,11,24,5.90
2014,01,31,11,25,5.90
2014,01,31,11,26,5.80
2014,01,31,11,27,5.80
2014,01,31,11,28,5.70
2014,01,31,11,29,5.70
2014,01,31,11,30,5.70
2014,01,31,11,31,5.70
2014,01,31,11,32,5.70
2014,01,31,11,33,5.60
2014,01,31,11,34,5.60
2014,01,31,11,35,5.60
2014,01,31,11,36,5.60
2014,01,31,11,37,5.50
2014,01,31,11,38,5.60
2014,01,31,11,39,5.60
2014,01,31,11,40,5.60
2014,01,31,11,41,5.70
2014,01,31,11,42,5.70
2014,01,31,11,43,5.60
2014,01,31,11,44,5.60
2014,01,31,11,45,5.70
2014,01,31,11,46,5.70
2014,01,31,11,47,5.60
2014,01,31,11,48,5.50
2014,01,31,11,49,5.50
2014,01,31,11,50,5.50
2014,01,31,11,51,5.50
2014,01,31,11,52,5.40
2014,01,31,11,53,5.40
2014,01,31,11,54,5.50
2014,01,31,11,55,5.50
2014,01,31,11,56,5.60
2014,01,31,11,57,5.60
2014,01,31,11,58,5.60
2014,01,31,11,59,5.70
2014,01,31,12,00,5.70
2014,01,31,12,01,5.70
2014,01,31,12,02,5.80
2014,01,31,12,03,5.80
2014,01,31,12,04,5.70
2014,01,31,12,05,5.70
2014,01,31,12,06,5.70
2014,01,31,12,07,5.70
2014,01,31,12,08,5.70
2014,01,31,12,09,5.90
2014,01,31,12,10,5.90
2014,01,31,12,11,5.80
2014,01,31,12,12,5.90
2014,01,31,12,13,5.90
2014,01,31,12,14,6.00
2014,01,31,12,15,6.00
2014,01,31,12,16,6.00
2014,01,31,12,17,6.10
2014,01,31,12,18,6.10
2014,01,31,12,19,6.10
2014,01,31,12,20,6.20
2014,01,31,12,21,6.20
2014,01,31,12,22,6.20
2014,01,31,12,23,6.20
2014,01,31,12,24,6.20
2014,01,31,12,25,6.20
2014,01,31,12,26,6.20
2014,01,31,12,27,6.20
2014,01,31,12,28,6.20
2014,01,31,12,29,6.20
2014,01,31,12,30,6.20
2014,01,31,12,31,6.20
2014,01,31,12,32,6.20
2014,01,31,12,33,6.30
2014,01,31,12,34,6.30
2014,01,31,12,35,6.20
2014,01,31,12,36,6.20
2014,01,31,12,37,6.10
2014,01,31,12,38,6.10
2014,01,31,12,39,6.10
2014,01,31,12,40,6.10
2014,01,31,12,41,6.10
2014,01,31,12,42,6.10
2014,01,31,12,43,6.00
2014,01,31,12,44,6.00
2014,01,31,12,45,6.10
2014,01,31,12,46,6.20
2014,01,31,12,47,6.20
2014,01,31,12,48,6.40
2014,01,31,12,49,6.40
2014,01,31,12,50,6.60
2014,01,31,12,51,6.60
2014,01,31,12,52,6.60
2014,01,31,12,53,6.60
2014,01,31,12,54,6.60
2014,01,31,12,55,6.50
2014,01,31,12,56,6.30
2014,01,31,12,57,6.30
2014,01,31,12,58,6.30
2014,01,31,12,59,6.40
2014,01,31,13,00,6.40
2014,01,31,13,01,6.50
2014,01,31,13,02,6.60
2014,01,31,13,03,6.60
2014,01,31,13,04,6.70
2014,01,31,13,05,6.70
2014,01,31,13,06,6.80
2014,01,31,13,07,6.80
2014,01,31,13,08,6.70
2014,01,31,13,09,6.70
2014,01,31,13,10,6.70
2014,01,31,13,11,6.70
2014,01,31,13,12,6.70
2014,01,31,13,13,6.70
2014,01,31,13,14,6.60
2014,01,31,13,15,6.60
2014,01,31,13,16,6.60
2014,01,31,13,17,6.60
2014,01,31,13,18,6.60
2014,01,31,13,19,6.60
2014,01,31,13,20,6.60
2014,01,31,13,21,6.50
2014,01,31,13,22,6.40
2014,01,31,13,23,6.40
2014,01,31,13,24,6.50
2014,01,31,13,25,6.60
2014,01,31,13,26,6.60
2014,01,31,13,27,6.60
2014,01,31,13,28,6.60
2014,01,31,13,29,6.60
2014,01,31,13,30,6.60
2014,01,31,13,31,6.60
2014,01,31,13,32,6.40
2014,01,31,13,33,6.40
2014,01,31,13,34,6.50
2014,01,31,13,35,6.50
2014,01,31,13,36,6.40
2014,01,31,13,37,6.40
2014,01,31,13,38,6.40
2014,01,31,13,39,6.40
2014,01,31,13,40,6.40
2014,01,31,13,41,6.40
2014,01,31,13,42,6.30
2014,01,31,13,43,6.30
2014,01,31,13,44,6.20
2014,01,31,13,45,6.10
2014,01,31,13,46,6.10
2014,01,31,13,47,6.00
2014,01,31,13,48,5.90
2014,01,31,13,49,5.90
2014,01,31,13,50,5.90
2014,01,31,13,51,6.00
2014,01,31,13,52,6.00
2014,01,31,13,53,6.00
2014,01,31,13,54,6.00
2014,01,31,13,55,6.00
2014,01,31,13,56,6.00
2014,01,31,13,57,6.00
2014,01,31,13,58,6.10
2014,01,31,13,59,6.10
2014,01,31,14,00,6.10
2014,01,31,14,01,6.10
2014,01,31,14,02,6.20
2014,01,31,14,03,6.20
2014,01,31,14,04,6.20
2014,01,31,14,05,6.20
2014,01,31,14,06,6.20
2014,01,31,14,07,6.20
2014,01,31,14,08,6.20
2014,01,31,14,09,6.20
2014,01,31,14,10,6.30
2014,01,31,14,11,6.30
2014,01,31,14,12,6.40
2014,01,31,14,13,6.40
2014,01,31,14,14,6.40
2014,01,31,14,15,6.40
2014,01,31,14,16,6.40
2014,01,31,14,17,6.40
2014,01,31,14,18,6.60
2014,01,31,14,19,6.60
2014,01,31,14,20,6.60
2014,01,31,14,21,6.60
2014,01,31,14,22,6.50
2014,01,31,14,23,6.50
2014,01,31,14,24,6.60
2014,01,31,14,25,6.60
2014,01,31,14,26,6.60
2014,01,31,14,27,6.60
2014,01,31,14,28,6.60
2014,01,31,14,29,6.60
2014,01,31,14,30,6.60
2014,01,31,14,31,6.60
2014,01,31,14,32,6.60
2014,01,31,14,33,6.60
2014,01,31,14,34,6.60
2014,01,31,14,35,6.60
2014,01,31,14,36,6.60
2014,01,31,14,37,6.60
2014,01,31,14,38,6.70
2014,01,31,14,39,6.70
2014,01,31,14,40,6.70
2014,01,31,14,41,6.70
2014,01,31,14,42,6.70
2014,01,31,14,43,6.60
2014,01,31,14,44,6.70
2014,01,31,14,45,6.70
2014,01,31,14,46,6.70
2014,01,31,14,47,6.70
2014,01,31,14,48,6.70
2014,01,31,14,49,6.70
2014,01,31,14,50,6.60
2014,01,31,14,51,6.60
2014,01,31,14,52,6.70
2014,01,31,14,53,6.70
2014,01,31,14,54,6.70
2014,01,31,14,55,6.60
2014,01,31,14,56,6.60
2014,01,31,14,57,6.60
2014,01,31,14,58,6.60
2014,01,31,14,59,6.60
2014,01,31,15,00,6.60
2014,01,31,15,01,6.60
2014,01,31,15,02,6.60
2014,01,31,15,03,6.60
2014,01,31,15,04,6.60
2014,01,31,15,05,6.60
2014,01,31,15,06,6.60
2014,01,31,15,07,6.60
2014,01,31,15,08,6.60
2014,01,31,15,09,6.60
2014,01,31,15,10,6.60
2014,01,31,15,11,6.60
2014,01,31,15,12,6.60
2014,01,31,15,13,6.60
2014,01,31,15,14,6.60
2014,01,31,15,15,6.60
2014,01,31,15,16,6.60
2014,01,31,15,17,6.60
2014,01,31,15,18,6.60
2014,01,31,15,19,6.60
2014,01,31,15,20,6.70
2014,01,31,15,21,6.70
2014,01,31,15,22,6.60
2014,01,31,15,23,6.60
2014,01,31,15,24,6.60
2014,01,31,15,25,6.60
2014,01,31,15,26,6.60
2014,01,31,15,27,6.70
2014,01,31,15,28,6.80
2014,01,31,15,29,6.80
2014,01,31,15,30,6.80
2014,01,31,15,31,6.90
2014,01,31,15,32,6.90
2014,01,31,15,33,6.90
2014,01,31,15,34,6.90
2014,01,31,15,35,6.80
2014,01,31,15,36,6.80
2014,01,31,15,37,6.80
2014,01,31,15,38,6.80
2014,01,31,15,39,6.80
2014,01,31,15,40,6.80
2014,01,31,15,41,6.80
2014,01,31,15,42,6.80
2014,01,31,15,43,6.80
2014,01,31,15,44,6.80
2014,01,31,15,45,6.80
2014,01,31,15,46,6.80
2014,01,31,15,47,6.70
2014,01,31,15,48,6.70
2014,01,31,15,49,6.70
2014,01,31,15,50,6.70
2014,01,31,15,51,6.70
2014,01,31,15,52,6.70
2014,01,31,15,53,6.60
2014,01,31,15,54,6.60
2014,01,31,15,55,6.60
2014,01,31,15,56,6.50
2014,01,31,15,57,6.40
2014,01,31,15,58,6.40
2014,01,31,15,59,6.40
2014,01,31,16,00,6.40
2014,01,31,16,01,6.40
2014,01,31,16,02,6.40
2014,01,31,16,03,6.40
2014,01,31,16,04,6.40
2014,01,31,16,05,6.40
2014,01,31,16,06,6.40
2014,01,31,16,07,6.40
2014,01,31,16,08,6.40
2014,01,31,16,09,6.40
2014,01,31,16,10,6.40
2014,01,31,16,11,6.40
2014,01,31,16,12,6.40
2014,01,31,16,13,6.50
2014,01,31,16,14,6.60
2014,01,31,16,15,6.60
2014,01,31,16,16,6.60
2014,01,31,16,17,6.60
2014,01,31,16,18,6.60
2014,01,31,16,19,6.50
2014,01,31,16,20,6.40
2014,01,31,16,21,6.30
2014,01,31,16,22,6.30
2014,01,31,16,23,6.20
2014,01,31,16,24,6.20
2014,01,31,16,25,6.10
2014,01,31,16,26,6.10
2014,01,31,16,27,6.00
2014,01,31,16,28,6.00
2014,01,31,16,29,6.00
2014,01,31,16,30,6.00
2014,01,31,16,31,6.00
2014,01,31,16,32,6.00
2014,01,31,16,33,5.90
2014,01,31,16,34,5.90
2014,01,31,16,35,6.00
2014,01,31,16,36,6.00
2014,01,31,16,37,6.00
2014,01,31,16,38,6.00
2014,01,31,16,39,6.00
2014,01,31,16,40,6.00
2014,01,31,16,41,6.00
2014,01,31,16,42,6.00
2014,01,31,16,43,6.00
2014,01,31,16,44,6.00
2014,01,31,16,45,5.90
2014,01,31,16,46,5.90
2014,01,31,16,47,5.80
2014,01,31,16,48,5.80
2014,01,31,16,49,5.70
2014,01,31,16,50,5.70
2014,01,31,16,51,5.70
2014,01,31,16,52,5.60
2014,01,31,16,53,5.50
2014,01,31,16,54,5.50
2014,01,31,16,55,5.40
2014,01,31,16,56,5.30
2014,01,31,16,57,5.30
2014,01,31,16,58,5.30
2014,01,31,16,59,5.20
2014,01,31,17,00,5.20
2014,01,31,17,01,5.20
2014,01,31,17,02,5.20
2014,01,31,17,03,5.10
2014,01,31,17,04,5.10
2014,01,31,17,05,5.10
2014,01,31,17,06,5.10
2014,01,31,17,07,5.10
2014,01,31,17,08,5.10
2014,01,31,17,09,5.10
2014,01,31,17,10,5.10
2014,01,31,17,11,5.00
2014,01,31,17,12,4.90
2014,01,31,17,13,4.90
2014,01,31,17,14,4.90
2014,01,31,17,15,4.90
2014,01,31,17,16,4.90
2014,01,31,17,17,4.90
2014,01,31,17,18,4.90
2014,01,31,17,19,4.90
2014,01,31,17,20,4.90
2014,01,31,17,21,4.90
2014,01,31,17,22,4.90
2014,01,31,17,23,4.90
2014,01,31,17,24,4.90
2014,01,31,17,25,4.90
2014,01,31,17,26,4.80
2014,01,31,17,27,4.80
2014,01,31,17,28,4.80
2014,01,31,17,29,4.80
2014,01,31,17,30,4.80
2014,01,31,17,31,4.70
2014,01,31,17,32,4.70
2014,01,31,17,33,4.70
2014,01,31,17,34,4.60
2014,01,31,17,35,4.60
2014,01,31,17,36,4.60
2014,01,31,17,37,4.60
2014,01,31,17,38,4.50
2014,01,31,17,39,4.50
2014,01,31,17,40,4.40
2014,01,31,17,41,4.40
2014,01,31,17,42,4.30
2014,01,31,17,43,4.20
2014,01,31,17,44,4.20
2014,01,31,17,45,4.20
2014,01,31,17,46,4.20
2014,01,31,17,47,4.20
2014,01,31,17,48,4.20
2014,01,31,17,49,4.10
2014,01,31,17,50,4.10
2014,01,31,17,51,4.10
2014,01,31,17,52,4.10
2014,01,31,17,53,4.00
2014,01,31,17,54,4.00
2014,01,31,17,55,4.00
2014,01,31,17,56,3.90
2014,01,31,17,57,3.90
2014,01,31,17,58,3.80
2014,01,31,17,59,3.80
2014,01,31,18,00,3.80
2014,01,31,18,01,3.80
2014,01,31,18,02,3.80
2014,01,31,18,03,3.70
2014,01,31,18,04,3.70
2014,01,31,18,05,3.60
2014,01,31,18,06,3.60